Printer-friendly version

IAU Minor Planet Center

Minor Planet Center

MPEC 2001-Y38: 2001 YV3

The following Minor Planet Electronic Circular may be linked-to from your own Web pages, but must not otherwise be redistributed electronically.


Read MPEC 2001-Y37 Read MPEC 2001-Y39


M.P.E.C. 2001-Y38                                Issued 2001 Dec. 24, 01:32 UT

     The Minor Planet Electronic Circulars contain information on unusual
         minor planets and routine data on comets.  They are published
   on behalf of Commission 20 of the International Astronomical Union by the
          Minor Planet Center, Smithsonian Astrophysical Observatory,
                          Cambridge, MA 02138, U.S.A.

             Prepared using the Tamkin Foundation Computer Network

                              MPC@CFA.HARVARD.EDU
          URL http://cfa-www.harvard.edu/iau/mpc.html  ISSN 1523-6714

                                   2001 YV3

Observations:
     K01Y03V* C2001 12 22.45335 08 12 52.38 +12 07 24.0          18.9        608
     K01Y03V  C2001 12 22.46374 08 12 46.21 +12 08 12.5          19.4        608
     K01Y03V  C2001 12 22.47494 08 12 39.64 +12 09 02.6          19.5        608
     K01Y03V  C2001 12 23.09939 08 06 52.31 +12 54 48.8          18.8 R      966
     K01Y03V  C2001 12 23.10917 08 06 46.88 +12 55 31.7          19.0 R      966
     K01Y03V  C2001 12 23.26913 08 05 22.62 +13 06 59.4          18.1 R      734
     K01Y03V  C2001 12 23.27727 08 05 18.05 +13 07 35.5          17.3 R      734
     K01Y03V FC2001 12 23.89940 07 59 55.43 +13 49 36.3                      611
     K01Y03V FC2001 12 23.90807 07 59 51.21 +13 50 10.6                      611
     K01Y03V FC2001 12 23.91073 07 59 49.63 +13 50 20.5                      611
     K01Y03V FC2001 12 23.91222 07 59 49.05 +13 50 28.4                      611
     K01Y03V  C2001 12 23.96305 07 59 22.52 +13 53 47.9                      118
     K01Y03V  C2001 12 23.96397 07 59 22.09 +13 53 51.8                      118
     K01Y03V  C2001 12 23.96482 07 59 21.64 +13 53 54.8                      118
     K01Y03V  C2001 12 23.96684 07 59 20.61 +13 54 02.8                      118
     K01Y03V  C2001 12 23.98028 07 59 13.67 +13 54 56.5                      046
     K01Y03V  C2001 12 23.98086 07 59 13.43 +13 54 57.9                      046
     K01Y03V  C2001 12 23.98149 07 59 13.07 +13 55 01.3                      046
     K01Y03V  C2001 12 23.98253 07 59 12.56 +13 55 05.2          17.0 R      046
     K01Y03V  C2001 12 23.98403 07 59 11.74 +13 55 10.7                      046

Observer details:
046 Klet.  Observers M. Kocer, M. Kocerova.  0.57-m f/5.2 reflector + CCD.
118 Modra.  Observers A. Galad, L. Kornos.  0.6-m f/5.5 reflector + CCD.
608 Haleakala-NEAT/MSSS.  Observers E. F. Helin, S. Pravdo, K. Lawrence,
    P. Kervin, R. Maeda, J. Africano, M. Hicks.  1.2-m reflector + CCD.
611 Starkenburg.  Observers M. Busch, R. Stoss.  0.45-m f/4.4 reflector + CCD.
734 Farpoint Observatory.  Observer G. Hug.  Measurer M. Miller.  0.30-m
    Schmidt-Cassegrain + CCD.
966 Church Stretton.  Observer S. P. Laurie.  0.35-m f/11 Schmidt-Cassegrain
    + CCD.

Orbital elements:
2001 YV3                                                             PHA 0.033
Epoch 2001 Dec. 17.0 TT = JDT 2452260.5                 MPC
M  18.79163              (2000.0)            P               Q
n   0.36140248     Peri.  243.76344     +0.98588128     +0.14355394
a   1.9519797      Node   107.88288     -0.10201643     +0.92316333
e   0.7197908      Incl.    5.19673     -0.13278085     +0.35659743
P   2.73           H   20.8           G   0.15
From 20 observations 2001 Dec. 22-23.

Ephemeris:
2001 YV3                 a,e,i = 1.95, 0.72, 5                   q = 0.5470
Date    TT    R. A. (2000) Decl.     Delta      r     Elong.  Phase     V
2001 12 17    09 17.78   +02 46.3    0.132    1.062   123.2    50.8    18.4
2001 12 19    08 50.70   +06 47.9    0.144    1.087   133.0    41.4    18.4
2001 12 21    08 27.51   +10 06.9    0.159    1.112   141.6    33.3    18.4
2001 12 23    08 07.78   +12 48.2    0.175    1.137   149.1    26.4    18.5
2001 12 25    07 51.02   +14 58.1    0.193    1.162   155.7    20.4    18.6
2001 12 27    07 36.75   +16 42.9    0.212    1.187   161.5    15.3    18.6
2001 12 29    07 24.57   +18 08.0    0.233    1.211   166.7    10.8    18.7
2001 12 31    07 14.15   +19 17.5    0.254    1.235   171.3     6.9    18.8
2002 01 02    07 05.19   +20 14.7    0.276    1.259   175.5     3.5    18.8
2002 01 04    06 57.48   +21 02.3    0.300    1.283   178.3     1.3    18.9
2002 01 06    06 50.82   +21 42.0    0.324    1.306   176.1     2.9    19.2

2002 01 16    06 29.13   +23 46.8    0.455    1.422   161.0    13.0    20.6
2002 01 26    06 20.04   +24 46.9    0.603    1.532   148.7    19.5    21.6

Brian G. Marsden             (C) Copyright 2001 MPC           M.P.E.C. 2001-Y38

Read MPEC 2001-Y37 Read MPEC 2001-Y39


Our Web policy. Index to the CBAT/MPC/ICQ pages.


Valid HTML 4.01!